Time,TemperatureF,DewpointF,PressureIn,WindDirection,WindDirectionDegrees,WindSpeedMPH,WindSpeedGustMPH,Humidity,HourlyPrecipIn,Conditions,Clouds,dailyrainin,SoftwareType,DateUTC
2013-10-11 00:02:00,63.0,53.0,28.91,SE,135,10.3,11.0,71,0.00,,,0.00,Rainwise IP-100,2013-10-11 05:02:00,
2013-10-11 00:07:00,62.8,53.0,28.91,SE,135,10.3,10.3,72,0.00,,,0.00,Rainwise IP-100,2013-10-11 05:07:00,
2013-10-11 00:12:00,62.8,54.0,28.91,SE,135,9.3,12.0,73,0.00,,,0.00,Rainwise IP-100,2013-10-11 05:12:00,
2013-10-11 00:17:00,62.9,54.0,28.90,SE,135,11.7,11.7,72,0.00,,,0.00,Rainwise IP-100,2013-10-11 05:17:00,
2013-10-11 00:22:00,63.0,54.0,28.90,SE,135,10.7,11.0,72,0.00,,,0.00,Rainwise IP-100,2013-10-11 05:22:00,
2013-10-11 00:27:00,62.9,54.0,28.91,SE,135,9.1,10.0,72,0.00,,,0.00,Rainwise IP-100,2013-10-11 05:27:00,
2013-10-11 00:32:00,62.9,53.0,28.91,SE,135,10.5,12.0,71,0.00,,,0.00,Rainwise IP-100,2013-10-11 05:32:00,
2013-10-11 00:37:00,62.9,53.0,28.91,SE,135,11.2,12.0,71,0.00,,,0.00,Rainwise IP-100,2013-10-11 05:37:00,
2013-10-11 00:42:00,62.8,53.0,28.91,ESE,112,4.0,11.0,72,0.00,,,0.00,Rainwise IP-100,2013-10-11 05:42:00,
2013-10-11 00:47:00,62.6,54.0,28.91,SE,135,9.6,9.6,73,0.00,,,0.00,Rainwise IP-100,2013-10-11 05:47:00,
2013-10-11 00:52:00,62.5,54.0,28.91,ENE,67,3.5,10.0,73,0.00,,,0.00,Rainwise IP-100,2013-10-11 05:52:00,
2013-10-11 00:57:00,62.5,54.0,28.91,SE,135,9.3,9.3,73,0.00,,,0.00,Rainwise IP-100,2013-10-11 05:57:00,
2013-10-11 01:02:00,62.3,53.0,28.91,SE,135,9.3,9.3,73,0.00,,,0.00,Rainwise IP-100,2013-10-11 06:02:00,
2013-10-11 01:07:00,62.2,53.0,28.91,SSE,157,9.3,11.0,74,0.00,,,0.00,Rainwise IP-100,2013-10-11 06:07:00,
2013-10-11 01:12:00,62.3,53.0,28.91,SSE,157,8.4,11.0,74,0.00,,,0.00,Rainwise IP-100,2013-10-11 06:12:00,
2013-10-11 01:24:00,62.2,53.0,28.91,SE,135,9.3,10.0,73,0.00,,,0.00,Rainwise IP-100,2013-10-11 06:24:00,
2013-10-11 01:29:00,62.2,53.0,28.91,SE,135,8.4,12.0,74,0.00,,,0.00,Rainwise IP-100,2013-10-11 06:29:00,
2013-10-11 01:34:00,62.1,53.0,28.91,SE,135,9.3,11.0,74,0.00,,,0.00,Rainwise IP-100,2013-10-11 06:34:00,
2013-10-11 01:39:00,62.1,53.0,28.91,SE,135,11.0,11.0,74,0.00,,,0.00,Rainwise IP-100,2013-10-11 06:39:00,
2013-10-11 01:44:00,62.1,53.0,28.91,SE,135,8.6,11.0,74,0.00,,,0.00,Rainwise IP-100,2013-10-11 06:44:00,
2013-10-11 01:49:00,62.1,53.0,28.91,SE,135,10.3,11.0,74,0.00,,,0.00,Rainwise IP-100,2013-10-11 06:49:00,
2013-10-11 01:54:00,62.1,53.0,28.91,SE,135,10.0,11.0,74,0.00,,,0.00,Rainwise IP-100,2013-10-11 06:54:00,
2013-10-11 01:59:00,61.9,53.0,28.91,South,180,5.6,10.0,74,0.00,,,0.00,Rainwise IP-100,2013-10-11 06:59:00,
2013-10-11 02:04:00,61.9,53.0,28.91,SE,135,10.5,11.0,74,0.00,,,0.00,Rainwise IP-100,2013-10-11 07:04:00,
2013-10-11 02:09:00,61.9,53.0,28.91,SE,135,7.9,11.0,74,0.00,,,0.00,Rainwise IP-100,2013-10-11 07:09:00,
2013-10-11 02:14:00,61.9,53.0,28.91,SSE,157,9.3,9.3,74,0.00,,,0.00,Rainwise IP-100,2013-10-11 07:14:00,
2013-10-11 02:19:00,61.8,53.0,28.91,WSW,247,1.6,9.0,74,0.00,,,0.00,Rainwise IP-100,2013-10-11 07:19:00,
2013-10-11 02:24:00,61.7,53.0,28.91,SE,135,7.7,9.0,74,0.00,,,0.00,Rainwise IP-100,2013-10-11 07:24:00,
2013-10-11 02:29:00,61.7,53.0,28.91,SE,135,8.4,8.4,75,0.00,,,0.00,Rainwise IP-100,2013-10-11 07:29:00,
2013-10-11 02:34:00,61.6,53.0,28.90,East,90,2.3,11.0,75,0.00,,,0.00,Rainwise IP-100,2013-10-11 07:34:00,
2013-10-11 02:39:00,61.6,53.0,28.90,SSE,157,2.6,10.0,75,0.00,,,0.00,Rainwise IP-100,2013-10-11 07:39:00,
2013-10-11 02:44:00,61.6,53.0,28.91,SE,135,5.6,8.0,75,0.00,,,0.00,Rainwise IP-100,2013-10-11 07:44:00,
2013-10-11 02:49:00,61.6,53.0,28.91,SSE,157,9.3,9.3,75,0.00,,,0.00,Rainwise IP-100,2013-10-11 07:49:00,
2013-10-11 02:54:00,61.6,53.0,28.91,SSE,157,2.6,10.0,75,0.00,,,0.00,Rainwise IP-100,2013-10-11 07:54:00,
2013-10-11 02:59:00,61.6,53.0,28.91,SSE,157,2.6,2.6,75,0.00,,,0.00,Rainwise IP-100,2013-10-11 07:59:00,
2013-10-11 03:04:00,61.5,53.0,28.91,SE,135,7.5,7.5,75,0.00,,,0.00,Rainwise IP-100,2013-10-11 08:04:00,
2013-10-11 03:09:00,61.5,53.0,28.91,SE,135,11.0,11.0,75,0.00,,,0.00,Rainwise IP-100,2013-10-11 08:09:00,
2013-10-11 03:14:00,61.5,53.0,28.91,NW,315,1.4,11.0,75,0.00,,,0.00,Rainwise IP-100,2013-10-11 08:14:00,
2013-10-11 03:19:00,61.4,53.0,28.91,SSE,157,10.7,10.7,75,0.00,,,0.00,Rainwise IP-100,2013-10-11 08:19:00,
2013-10-11 03:25:00,61.1,54.0,28.91,SE,135,4.2,10.0,77,0.00,,,0.00,Rainwise IP-100,2013-10-11 08:25:00,
2013-10-11 03:29:00,61.1,54.0,28.91,SE,135,7.9,9.0,77,0.00,,,0.00,Rainwise IP-100,2013-10-11 08:29:00,
2013-10-11 03:34:00,61.1,54.0,28.91,SE,135,7.9,7.9,77,0.00,,,0.00,Rainwise IP-100,2013-10-11 08:34:00,
2013-10-11 03:40:00,61.1,53.0,28.90,ESE,112,2.3,7.0,76,0.00,,,0.00,Rainwise IP-100,2013-10-11 08:40:00,
2013-10-11 03:45:00,61.0,54.0,28.91,ESE,112,1.4,2.0,77,0.00,,,0.00,Rainwise IP-100,2013-10-11 08:45:00,
2013-10-11 03:50:00,61.0,54.0,28.91,ESE,112,1.4,1.4,77,0.00,,,0.00,Rainwise IP-100,2013-10-11 08:50:00,
2013-10-11 03:57:00,60.8,53.0,28.90,SSE,157,4.9,0.0,78,0.00,,,1.59,Rainwise IP-100,2013-10-11 08:57:00,
2013-10-11 04:02:00,60.8,53.0,28.90,SE,135,9.6,9.6,78,9.54,,,1.59,Rainwise IP-100,2013-10-11 09:02:00,
2013-10-11 04:07:00,60.8,53.0,28.91,SE,135,10.5,10.5,78,9.54,,,1.59,Rainwise IP-100,2013-10-11 09:07:00,
2013-10-11 04:12:00,60.8,53.0,28.90,SE,135,7.0,10.0,78,0.00,,,1.59,Rainwise IP-100,2013-10-11 09:12:00,
2013-10-11 04:17:00,60.8,53.0,28.90,South,180,2.6,10.0,78,0.00,,,1.59,Rainwise IP-100,2013-10-11 09:17:00,
2013-10-11 04:22:00,60.8,53.0,28.90,South,180,2.6,2.6,78,0.00,,,1.59,Rainwise IP-100,2013-10-11 09:22:00,
2013-10-11 04:27:00,60.7,53.0,28.90,SE,135,7.2,7.2,78,0.00,,,1.59,Rainwise IP-100,2013-10-11 09:27:00,
2013-10-11 04:32:00,60.7,53.0,28.90,SSW,202,3.7,10.0,78,0.00,,,1.59,Rainwise IP-100,2013-10-11 09:32:00,
2013-10-11 04:37:00,60.7,53.0,28.90,SSW,202,3.7,4.0,78,0.00,,,1.59,Rainwise IP-100,2013-10-11 09:37:00,
2013-10-11 04:42:00,60.7,54.0,28.90,SE,135,9.8,9.8,79,0.00,,,1.59,Rainwise IP-100,2013-10-11 09:42:00,
2013-10-11 04:47:00,60.7,54.0,28.91,ENE,67,1.2,9.0,79,0.00,,,1.59,Rainwise IP-100,2013-10-11 09:47:00,
2013-10-11 04:52:00,60.7,54.0,28.91,ENE,67,1.2,1.2,79,0.00,,,1.59,Rainwise IP-100,2013-10-11 09:52:00,
2013-10-11 04:57:00,60.4,54.0,28.90,SE,135,9.1,9.1,79,0.00,,,1.59,Rainwise IP-100,2013-10-11 09:57:00,
2013-10-11 05:02:00,60.3,54.0,28.90,South,180,5.4,11.0,80,0.00,,,1.59,Rainwise IP-100,2013-10-11 10:02:00,
2013-10-11 05:07:00,60.2,54.0,28.90,ESE,112,6.1,8.0,80,0.00,,,1.59,Rainwise IP-100,2013-10-11 10:07:00,
2013-10-11 05:12:00,60.1,54.0,28.90,SE,135,5.6,9.0,80,0.00,,,1.59,Rainwise IP-100,2013-10-11 10:12:00,
2013-10-11 05:17:00,60.0,54.0,28.91,NW,315,2.1,9.0,80,0.00,,,1.59,Rainwise IP-100,2013-10-11 10:17:00,
2013-10-11 05:22:00,60.0,54.0,28.91,NW,315,2.1,2.1,80,0.00,,,1.59,Rainwise IP-100,2013-10-11 10:22:00,
2013-10-11 05:27:00,59.8,53.0,28.91,SE,135,7.9,7.9,81,0.00,,,1.59,Rainwise IP-100,2013-10-11 10:27:00,
2013-10-11 05:32:00,59.8,53.0,28.91,SE,135,7.9,7.9,81,0.00,,,1.59,Rainwise IP-100,2013-10-11 10:32:00,
2013-10-11 05:44:00,59.1,53.0,28.91,SE,135,4.2,0.0,81,0.00,,,1.59,Rainwise IP-100,2013-10-11 10:44:00,
2013-10-11 05:49:00,59.1,53.0,28.91,SE,135,4.2,4.2,81,0.00,,,1.59,Rainwise IP-100,2013-10-11 10:49:00,
2013-10-11 07:19:00,58.6,54.0,28.88,SE,135,9.3,0.0,83,0.00,,,3.18,Rainwise IP-100,2013-10-11 12:19:00,
2013-10-11 07:24:00,58.7,54.0,28.88,SSE,157,10.0,15.0,83,9.54,,,3.18,Rainwise IP-100,2013-10-11 12:24:00,
2013-10-11 07:29:00,58.8,54.0,28.88,SE,135,10.7,14.0,83,9.54,,,3.18,Rainwise IP-100,2013-10-11 12:29:00,
2013-10-11 07:34:00,58.7,54.0,28.88,SE,135,12.1,19.0,83,0.00,,,3.18,Rainwise IP-100,2013-10-11 12:34:00,
2013-10-11 07:39:00,58.7,54.0,28.88,SE,135,9.6,18.0,83,0.00,,,3.18,Rainwise IP-100,2013-10-11 12:39:00,
2013-10-11 07:44:00,58.6,54.0,28.88,SE,135,15.2,18.0,83,0.00,,,3.18,Rainwise IP-100,2013-10-11 12:44:00,
2013-10-11 07:49:00,58.5,54.0,28.88,SE,135,9.6,15.0,83,0.00,,,3.18,Rainwise IP-100,2013-10-11 12:49:00,
2013-10-11 07:54:00,58.5,54.0,28.88,SE,135,11.0,12.0,83,0.00,,,3.18,Rainwise IP-100,2013-10-11 12:54:00,
2013-10-11 07:59:00,58.5,54.0,28.88,SE,135,10.7,11.0,84,0.00,,,3.18,Rainwise IP-100,2013-10-11 12:59:00,
2013-10-11 08:04:00,58.4,53.0,28.87,SE,135,16.8,16.8,84,0.00,,,3.18,Rainwise IP-100,2013-10-11 13:04:00,
2013-10-11 08:09:00,58.5,54.0,28.86,ESE,112,16.6,19.0,84,0.00,,,3.18,Rainwise IP-100,2013-10-11 13:09:00,
2013-10-11 08:14:00,58.6,54.0,28.86,ESE,112,18.7,19.0,83,0.00,,,3.18,Rainwise IP-100,2013-10-11 13:14:00,
2013-10-11 08:19:00,58.8,54.0,28.86,SE,135,16.8,22.0,83,0.00,,,3.18,Rainwise IP-100,2013-10-11 13:19:00,
2013-10-11 08:24:00,58.9,54.0,28.86,ESE,112,19.8,19.8,83,0.00,,,3.18,Rainwise IP-100,2013-10-11 13:24:00,
2013-10-11 08:29:00,59.0,54.0,28.85,SE,135,15.6,22.0,83,0.00,,,3.18,Rainwise IP-100,2013-10-11 13:29:00,
2013-10-11 08:34:00,59.1,54.0,28.85,SE,135,11.9,26.0,83,0.00,,,3.18,Rainwise IP-100,2013-10-11 13:34:00,
2013-10-11 08:39:00,59.4,54.0,28.84,SE,135,16.1,22.0,82,0.00,,,3.18,Rainwise IP-100,2013-10-11 13:39:00,
2013-10-11 08:44:00,59.4,54.0,28.85,SE,135,14.9,21.0,82,0.00,,,3.18,Rainwise IP-100,2013-10-11 13:44:00,
2013-10-11 08:49:00,59.5,54.0,28.85,SE,135,13.3,17.0,83,0.00,,,3.18,Rainwise IP-100,2013-10-11 13:49:00,
2013-10-11 08:54:00,59.9,54.0,28.85,SE,135,13.1,19.0,83,0.00,,,3.18,Rainwise IP-100,2013-10-11 13:54:00,
2013-10-11 08:59:00,60.0,54.0,28.85,SE,135,13.3,18.0,82,0.00,,,3.18,Rainwise IP-100,2013-10-11 13:59:00,
2013-10-11 09:04:00,60.3,54.0,28.85,SE,135,14.5,20.0,82,0.00,,,3.18,Rainwise IP-100,2013-10-11 14:04:00,
2013-10-11 09:09:00,60.5,54.0,28.84,SE,135,15.6,24.0,81,0.00,,,3.18,Rainwise IP-100,2013-10-11 14:09:00,
2013-10-11 09:14:00,60.7,54.0,28.84,SE,135,14.9,20.0,81,0.00,,,3.18,Rainwise IP-100,2013-10-11 14:14:00,
2013-10-11 09:19:00,60.9,55.0,28.84,SE,135,12.4,21.0,81,0.00,,,3.18,Rainwise IP-100,2013-10-11 14:19:00,
2013-10-11 09:24:00,61.0,55.0,28.83,SE,135,14.5,23.0,81,0.00,,,3.18,Rainwise IP-100,2013-10-11 14:24:00,
2013-10-11 09:29:00,61.2,54.0,28.84,SE,135,17.0,21.0,80,0.00,,,3.18,Rainwise IP-100,2013-10-11 14:29:00,
2013-10-11 09:34:00,61.3,54.0,28.83,SE,135,15.2,21.0,80,0.00,,,3.18,Rainwise IP-100,2013-10-11 14:34:00,
2013-10-11 09:39:00,61.5,54.0,28.84,SE,135,10.3,21.0,79,0.00,,,3.18,Rainwise IP-100,2013-10-11 14:39:00,
2013-10-11 09:44:00,61.8,54.0,28.83,SE,135,12.1,22.0,79,0.00,,,3.18,Rainwise IP-100,2013-10-11 14:44:00,
2013-10-11 09:49:00,61.9,55.0,28.84,SE,135,12.8,20.0,79,0.00,,,3.18,Rainwise IP-100,2013-10-11 14:49:00,
2013-10-11 09:54:00,62.1,55.0,28.83,SE,135,16.8,19.0,78,0.00,,,3.18,Rainwise IP-100,2013-10-11 14:54:00,
2013-10-11 09:59:00,62.2,55.0,28.83,SE,135,13.5,19.0,78,0.00,,,3.18,Rainwise IP-100,2013-10-11 14:59:00,
2013-10-11 10:04:00,62.4,55.0,28.83,SE,135,19.1,23.0,78,0.00,,,3.18,Rainwise IP-100,2013-10-11 15:04:00,
2013-10-11 10:09:00,62.6,55.0,28.83,SE,135,14.2,20.0,78,0.00,,,3.18,Rainwise IP-100,2013-10-11 15:09:00,
2013-10-11 10:14:00,62.7,55.0,28.84,SE,135,12.1,24.0,78,0.00,,,3.18,Rainwise IP-100,2013-10-11 15:14:00,
2013-10-11 10:19:00,63.1,56.0,28.83,SE,135,10.5,20.0,78,0.00,,,3.18,Rainwise IP-100,2013-10-11 15:19:00,
2013-10-11 10:24:00,63.4,56.0,28.82,SE,135,16.3,25.0,77,0.00,,,3.18,Rainwise IP-100,2013-10-11 15:24:00,
2013-10-11 10:29:00,63.5,56.0,28.81,East,90,12.8,23.0,76,0.00,,,3.18,Rainwise IP-100,2013-10-11 15:29:00,
2013-10-11 10:34:00,63.7,56.0,28.80,SE,135,14.0,25.0,76,0.00,,,3.18,Rainwise IP-100,2013-10-11 15:34:00,
2013-10-11 10:39:00,63.9,56.0,28.80,SE,135,18.2,26.0,76,0.00,,,3.18,Rainwise IP-100,2013-10-11 15:39:00,
2013-10-11 10:44:00,64.1,56.0,28.80,SE,135,18.9,25.0,75,0.00,,,3.18,Rainwise IP-100,2013-10-11 15:44:00,
2013-10-11 10:49:00,64.5,56.0,28.78,ESE,112,17.5,25.0,75,0.00,,,3.18,Rainwise IP-100,2013-10-11 15:49:00,
2013-10-11 10:54:00,64.8,56.0,28.79,SE,135,15.9,31.0,75,0.00,,,3.18,Rainwise IP-100,2013-10-11 15:54:00,
2013-10-11 10:59:00,65.1,56.0,28.78,ESE,112,24.0,31.0,74,0.00,,,3.18,Rainwise IP-100,2013-10-11 15:59:00,
2013-10-11 11:04:00,65.5,56.0,28.78,SE,135,22.2,31.0,73,0.00,,,3.18,Rainwise IP-100,2013-10-11 16:04:00,
2013-10-11 11:09:00,65.7,56.0,28.78,SE,135,19.4,28.0,73,0.00,,,3.18,Rainwise IP-100,2013-10-11 16:09:00,
2013-10-11 11:14:00,65.9,57.0,28.79,SE,135,16.1,31.0,73,0.00,,,3.18,Rainwise IP-100,2013-10-11 16:14:00,
2013-10-11 11:19:00,66.1,57.0,28.78,SE,135,18.0,33.0,73,0.00,,,3.18,Rainwise IP-100,2013-10-11 16:19:00,
2013-10-11 11:24:00,66.2,57.0,28.77,SE,135,26.1,29.0,73,0.00,,,3.18,Rainwise IP-100,2013-10-11 16:24:00,
2013-10-11 11:29:00,66.3,57.0,28.76,SSE,157,18.2,33.0,73,0.00,,,3.18,Rainwise IP-100,2013-10-11 16:29:00,
2013-10-11 11:34:00,66.5,57.0,28.77,SE,135,20.1,30.0,72,0.00,,,3.18,Rainwise IP-100,2013-10-11 16:34:00,
2013-10-11 11:39:00,66.7,57.0,28.77,SSE,157,16.8,32.0,72,0.00,,,3.18,Rainwise IP-100,2013-10-11 16:39:00,
2013-10-11 11:44:00,67.0,57.0,28.76,SE,135,21.2,34.0,71,0.00,,,3.18,Rainwise IP-100,2013-10-11 16:44:00,
2013-10-11 11:49:00,67.1,57.0,28.75,SE,135,21.5,37.0,71,0.00,,,3.18,Rainwise IP-100,2013-10-11 16:49:00,
2013-10-11 11:54:00,67.2,57.0,28.76,SE,135,19.4,33.0,71,0.00,,,3.18,Rainwise IP-100,2013-10-11 16:54:00,
2013-10-11 11:59:00,67.4,57.0,28.75,SE,135,17.0,29.0,71,0.00,,,3.18,Rainwise IP-100,2013-10-11 16:59:00,
2013-10-11 12:04:00,67.9,57.0,28.75,SE,135,26.6,29.0,70,0.00,,,3.18,Rainwise IP-100,2013-10-11 17:04:00,
2013-10-11 12:09:00,68.3,57.0,28.74,SE,135,27.5,34.0,69,0.00,,,3.18,Rainwise IP-100,2013-10-11 17:09:00,
2013-10-11 12:14:00,68.5,57.0,28.74,SE,135,19.1,33.0,68,0.00,,,3.18,Rainwise IP-100,2013-10-11 17:14:00,
2013-10-11 12:19:00,68.7,57.0,28.73,SE,135,23.3,35.0,68,0.00,,,3.18,Rainwise IP-100,2013-10-11 17:19:00,
2013-10-11 12:24:00,68.7,57.0,28.73,SE,135,18.9,36.0,68,0.00,,,3.18,Rainwise IP-100,2013-10-11 17:24:00,
2013-10-11 12:29:00,68.6,57.0,28.74,SE,135,19.6,28.0,68,0.00,,,3.18,Rainwise IP-100,2013-10-11 17:29:00,
2013-10-11 12:34:00,68.6,57.0,28.75,SE,135,14.2,23.0,68,0.00,,,3.18,Rainwise IP-100,2013-10-11 17:34:00,
2013-10-11 12:39:00,68.8,57.0,28.74,SE,135,14.7,25.0,68,0.00,,,3.18,Rainwise IP-100,2013-10-11 17:39:00,
2013-10-11 12:44:00,69.1,57.0,28.73,SE,135,15.9,27.0,67,0.00,,,3.18,Rainwise IP-100,2013-10-11 17:44:00,
2013-10-11 12:49:00,69.4,57.0,28.72,SE,135,18.2,25.0,66,0.00,,,3.18,Rainwise IP-100,2013-10-11 17:49:00,
2013-10-11 12:54:00,69.4,57.0,28.72,SSE,157,12.8,24.0,66,0.00,,,3.18,Rainwise IP-100,2013-10-11 17:54:00,
2013-10-11 12:59:00,69.5,57.0,28.73,SE,135,22.6,24.0,65,0.00,,,3.18,Rainwise IP-100,2013-10-11 17:59:00,
2013-10-11 13:04:00,70.0,57.0,28.72,SE,135,7.7,28.0,64,0.00,,,3.18,Rainwise IP-100,2013-10-11 18:04:00,
2013-10-11 13:09:00,70.3,56.0,28.71,ESE,112,4.9,28.0,62,0.00,,,3.18,Rainwise IP-100,2013-10-11 18:09:00,
2013-10-11 13:14:00,70.3,56.0,28.72,East,90,4.4,23.0,61,0.00,,,3.18,Rainwise IP-100,2013-10-11 18:14:00,
2013-10-11 13:19:00,70.2,56.0,28.72,WSW,247,5.4,28.0,61,0.00,,,3.18,Rainwise IP-100,2013-10-11 18:19:00,
2013-10-11 13:24:00,70.1,56.0,28.72,SSW,202,14.2,23.0,62,0.00,,,3.18,Rainwise IP-100,2013-10-11 18:24:00,
2013-10-11 13:29:00,70.2,56.0,28.72,SE,135,24.7,24.7,62,0.00,,,3.18,Rainwise IP-100,2013-10-11 18:29:00,
2013-10-11 13:34:00,70.2,56.0,28.72,South,180,13.8,25.0,61,0.00,,,3.18,Rainwise IP-100,2013-10-11 18:34:00,
2013-10-11 13:39:00,70.0,56.0,28.72,SE,135,9.8,31.0,61,0.00,,,3.18,Rainwise IP-100,2013-10-11 18:39:00,
2013-10-11 13:44:00,69.8,56.0,28.71,NE,45,6.8,26.0,62,0.00,,,3.18,Rainwise IP-100,2013-10-11 18:44:00,
2013-10-11 13:49:00,69.8,56.0,28.70,SE,135,27.3,27.3,62,0.00,,,3.18,Rainwise IP-100,2013-10-11 18:49:00,
2013-10-11 13:54:00,69.9,56.0,28.70,SE,135,15.4,28.0,62,0.00,,,3.18,Rainwise IP-100,2013-10-11 18:54:00,
2013-10-11 13:59:00,69.8,56.0,28.69,SSE,157,18.0,27.0,62,0.00,,,3.18,Rainwise IP-100,2013-10-11 18:59:00,
2013-10-11 14:04:00,69.8,56.0,28.70,SE,135,20.5,27.0,62,0.00,,,3.18,Rainwise IP-100,2013-10-11 19:04:00,
2013-10-11 14:09:00,70.0,56.0,28.68,SE,135,22.6,29.0,62,0.00,,,3.18,Rainwise IP-100,2013-10-11 19:09:00,
2013-10-11 14:14:00,69.9,56.0,28.67,SE,135,20.1,28.0,62,0.00,,,3.18,Rainwise IP-100,2013-10-11 19:14:00,
2013-10-11 14:19:00,70.0,56.0,28.68,NW,315,3.0,32.0,62,0.00,,,3.18,Rainwise IP-100,2013-10-11 19:19:00,
2013-10-11 14:24:00,70.1,56.0,28.67,WSW,247,6.3,28.0,61,0.00,,,3.18,Rainwise IP-100,2013-10-11 19:24:00,
2013-10-11 14:29:00,70.0,56.0,28.66,SE,135,21.9,27.0,61,0.00,,,3.18,Rainwise IP-100,2013-10-11 19:29:00,
2013-10-11 14:34:00,70.0,56.0,28.63,SE,135,41.3,41.3,61,0.00,,,3.18,Rainwise IP-100,2013-10-11 19:34:00,
2013-10-11 14:39:00,70.3,56.0,28.66,SE,135,13.5,45.0,61,0.00,,,3.18,Rainwise IP-100,2013-10-11 19:39:00,
2013-10-11 14:44:00,70.4,56.0,28.65,SE,135,4.2,38.0,60,0.00,,,3.18,Rainwise IP-100,2013-10-11 19:44:00,
2013-10-11 14:49:00,70.4,56.0,28.66,SE,135,18.0,33.0,61,0.00,,,3.18,Rainwise IP-100,2013-10-11 19:49:00,
2013-10-11 14:54:00,70.5,56.0,28.66,SSE,157,13.8,34.0,61,0.12,,,3.20,Rainwise IP-100,2013-10-11 19:54:00,
2013-10-11 14:59:00,70.4,56.0,28.65,SE,135,20.8,33.0,61,0.12,,,3.20,Rainwise IP-100,2013-10-11 19:59:00,
2013-10-11 15:04:00,70.4,56.0,28.66,SE,135,5.8,38.0,60,0.00,,,3.20,Rainwise IP-100,2013-10-11 20:04:00,
2013-10-11 15:09:00,70.3,56.0,28.65,West,270,7.9,32.0,61,0.00,,,3.20,Rainwise IP-100,2013-10-11 20:09:00,
2013-10-11 15:14:00,70.3,56.0,28.65,SE,135,24.5,36.0,61,0.00,,,3.20,Rainwise IP-100,2013-10-11 20:14:00,
2013-10-11 15:19:00,70.5,56.0,28.65,SE,135,22.9,29.0,61,0.00,,,3.20,Rainwise IP-100,2013-10-11 20:19:00,
2013-10-11 15:24:00,70.5,56.0,28.65,SE,135,15.4,27.0,61,0.00,,,3.20,Rainwise IP-100,2013-10-11 20:24:00,
2013-10-11 15:29:00,70.5,56.0,28.66,South,180,15.4,22.0,61,0.00,,,3.20,Rainwise IP-100,2013-10-11 20:29:00,
2013-10-11 15:34:00,70.7,56.0,28.64,ENE,67,4.4,33.0,61,0.00,,,3.20,Rainwise IP-100,2013-10-11 20:34:00,
2013-10-11 15:39:00,70.8,56.0,28.66,West,270,14.9,36.0,60,0.00,,,3.20,Rainwise IP-100,2013-10-11 20:39:00,
2013-10-11 15:44:00,70.9,56.0,28.66,NW,315,7.0,31.0,60,0.00,,,3.20,Rainwise IP-100,2013-10-11 20:44:00,
2013-10-11 15:49:00,71.1,56.0,28.65,SW,225,16.3,27.0,60,0.00,,,3.20,Rainwise IP-100,2013-10-11 20:49:00,
2013-10-11 15:54:00,71.1,56.0,28.67,ESE,112,7.9,21.0,60,0.00,,,3.20,Rainwise IP-100,2013-10-11 20:54:00,
2013-10-11 15:59:00,70.9,56.0,28.66,SE,135,17.0,22.0,60,0.00,,,3.20,Rainwise IP-100,2013-10-11 20:59:00,
2013-10-11 16:04:00,70.9,56.0,28.67,ENE,67,5.1,22.0,60,0.00,,,3.20,Rainwise IP-100,2013-10-11 21:04:00,
2013-10-11 16:09:00,71.1,56.0,28.66,WSW,247,12.8,23.0,60,0.00,,,3.20,Rainwise IP-100,2013-10-11 21:09:00,
2013-10-11 16:14:00,71.2,56.0,28.67,ENE,67,1.4,28.0,60,0.00,,,3.20,Rainwise IP-100,2013-10-11 21:14:00,
2013-10-11 16:19:00,71.2,56.0,28.66,ESE,112,16.3,24.0,60,0.00,,,3.20,Rainwise IP-100,2013-10-11 21:19:00,
2013-10-11 16:24:00,71.1,56.0,28.67,SE,135,5.1,29.0,60,0.00,,,3.20,Rainwise IP-100,2013-10-11 21:24:00,
2013-10-11 16:29:00,70.9,56.0,28.67,SE,135,4.0,18.0,61,0.00,,,3.20,Rainwise IP-100,2013-10-11 21:29:00,
2013-10-11 16:34:00,70.9,56.0,28.67,NW,315,1.9,16.0,61,0.00,,,3.20,Rainwise IP-100,2013-10-11 21:34:00,
2013-10-11 16:39:00,71.1,56.0,28.67,WSW,247,5.1,15.0,60,0.00,,,3.20,Rainwise IP-100,2013-10-11 21:39:00,
2013-10-11 16:44:00,71.2,56.0,28.68,West,270,4.2,19.0,60,0.00,,,3.20,Rainwise IP-100,2013-10-11 21:44:00,
2013-10-11 16:49:00,71.2,56.0,28.68,WNW,292,3.3,9.0,60,0.00,,,3.20,Rainwise IP-100,2013-10-11 21:49:00,
2013-10-11 16:54:00,71.2,56.0,28.68,West,270,11.7,15.0,60,0.00,,,3.20,Rainwise IP-100,2013-10-11 21:54:00,
2013-10-11 16:59:00,71.3,56.0,28.68,SE,135,15.4,24.0,60,0.00,,,3.20,Rainwise IP-100,2013-10-11 21:59:00,
2013-10-11 17:04:00,71.4,56.0,28.67,East,90,2.6,24.0,59,0.00,,,3.20,Rainwise IP-100,2013-10-11 22:04:00,
2013-10-11 17:09:00,71.4,56.0,28.67,West,270,2.3,28.0,59,0.00,,,3.20,Rainwise IP-100,2013-10-11 22:09:00,
2013-10-11 17:14:00,71.4,56.0,28.67,ESE,112,6.5,22.0,60,0.00,,,3.20,Rainwise IP-100,2013-10-11 22:14:00,
2013-10-11 17:19:00,71.4,56.0,28.68,WNW,292,2.1,15.0,60,0.00,,,3.20,Rainwise IP-100,2013-10-11 22:19:00,
2013-10-11 17:24:00,71.2,56.0,28.68,WNW,292,4.9,15.0,60,0.00,,,3.20,Rainwise IP-100,2013-10-11 22:24:00,
2013-10-11 17:29:00,71.2,56.0,28.68,SSE,157,4.2,13.0,60,0.00,,,3.20,Rainwise IP-100,2013-10-11 22:29:00,
2013-10-11 17:34:00,71.1,56.0,28.69,NE,45,3.3,14.0,61,0.00,,,3.20,Rainwise IP-100,2013-10-11 22:34:00,
2013-10-11 17:39:00,71.1,56.0,28.70,SE,135,5.8,5.8,61,0.00,,,3.20,Rainwise IP-100,2013-10-11 22:39:00,
2013-10-11 17:44:00,71.2,56.0,28.70,WSW,247,3.5,5.0,60,0.00,,,3.20,Rainwise IP-100,2013-10-11 22:44:00,
2013-10-11 17:49:00,71.2,57.0,28.70,WNW,292,4.2,4.2,61,0.00,,,3.20,Rainwise IP-100,2013-10-11 22:49:00,
2013-10-11 17:54:00,71.2,57.0,28.70,NW,315,2.1,12.0,61,0.00,,,3.20,Rainwise IP-100,2013-10-11 22:54:00,
2013-10-11 17:59:00,71.3,57.0,28.70,NW,315,3.3,7.0,61,0.00,,,3.20,Rainwise IP-100,2013-10-11 22:59:00,
2013-10-11 18:04:00,71.2,57.0,28.70,NW,315,3.3,6.0,61,0.00,,,3.20,Rainwise IP-100,2013-10-11 23:04:00,
2013-10-11 18:09:00,71.1,56.0,28.70,NNW,337,6.1,6.1,60,0.00,,,3.20,Rainwise IP-100,2013-10-11 23:09:00,
2013-10-11 18:14:00,71.0,56.0,28.70,NNW,337,2.1,6.0,61,0.00,,,3.20,Rainwise IP-100,2013-10-11 23:14:00,
2013-10-11 18:19:00,70.9,57.0,28.71,North,360,4.7,8.0,62,0.00,,,3.20,Rainwise IP-100,2013-10-11 23:19:00,
2013-10-11 18:24:00,70.7,57.0,28.71,ESE,112,5.6,5.6,62,0.00,,,3.20,Rainwise IP-100,2013-10-11 23:24:00,
2013-10-11 18:29:00,70.6,57.0,28.71,North,360,1.4,8.0,62,0.00,,,3.20,Rainwise IP-100,2013-10-11 23:29:00,
2013-10-11 18:34:00,70.5,57.0,28.71,NNW,337,2.3,4.0,63,0.00,,,3.20,Rainwise IP-100,2013-10-11 23:34:00,
2013-10-11 18:39:00,70.4,57.0,28.72,WNW,292,2.8,4.0,63,0.00,,,3.20,Rainwise IP-100,2013-10-11 23:39:00,
2013-10-11 18:44:00,70.2,57.0,28.70,West,270,0.0,7.0,64,0.00,,,3.20,Rainwise IP-100,2013-10-11 23:44:00,
2013-10-11 18:49:00,70.1,57.0,28.71,NNW,337,3.0,3.0,64,0.00,,,3.20,Rainwise IP-100,2013-10-11 23:49:00,
2013-10-11 18:54:00,70.0,57.0,28.70,SSW,202,2.3,3.0,65,0.00,,,3.20,Rainwise IP-100,2013-10-11 23:54:00,
2013-10-11 18:59:00,69.8,57.0,28.70,WNW,292,1.6,8.0,65,0.00,,,3.20,Rainwise IP-100,2013-10-11 23:59:00,
2013-10-11 19:04:00,69.6,57.0,28.70,WNW,292,2.3,6.0,66,0.00,,,3.20,Rainwise IP-100,2013-10-12 00:04:00,
2013-10-11 19:09:00,69.5,57.0,28.70,NNE,22,4.0,7.0,66,0.00,,,3.20,Rainwise IP-100,2013-10-12 00:09:00,
2013-10-11 19:14:00,69.5,58.0,28.70,WNW,292,2.8,7.0,67,0.00,,,3.20,Rainwise IP-100,2013-10-12 00:14:00,
2013-10-11 19:19:00,69.3,58.0,28.70,NE,45,3.0,10.0,68,0.00,,,3.20,Rainwise IP-100,2013-10-12 00:19:00,
2013-10-11 19:24:00,69.2,58.0,28.70,WNW,292,1.4,7.0,68,0.00,,,3.20,Rainwise IP-100,2013-10-12 00:24:00,
2013-10-11 19:29:00,68.9,58.0,28.69,NNW,337,1.2,7.0,69,0.00,,,3.20,Rainwise IP-100,2013-10-12 00:29:00,
2013-10-11 19:34:00,68.8,58.0,28.69,West,270,2.6,6.0,70,0.00,,,3.20,Rainwise IP-100,2013-10-12 00:34:00,
2013-10-11 19:39:00,68.7,59.0,28.69,WNW,292,3.7,4.0,71,0.00,,,3.20,Rainwise IP-100,2013-10-12 00:39:00,
2013-10-11 19:44:00,68.5,59.0,28.69,NNW,337,4.9,9.0,72,0.00,,,3.20,Rainwise IP-100,2013-10-12 00:44:00,
2013-10-11 19:49:00,68.5,59.0,28.69,SE,135,10.5,10.5,73,0.00,,,3.20,Rainwise IP-100,2013-10-12 00:49:00,
2013-10-11 19:54:00,68.4,60.0,28.69,SSE,157,8.4,10.0,74,0.00,,,3.20,Rainwise IP-100,2013-10-12 00:54:00,
2013-10-11 19:59:00,68.3,59.0,28.69,WNW,292,3.3,8.0,74,0.00,,,3.20,Rainwise IP-100,2013-10-12 00:59:00,
2013-10-11 20:04:00,68.3,60.0,28.68,NNW,337,2.8,10.0,75,0.00,,,3.20,Rainwise IP-100,2013-10-12 01:04:00,
2013-10-11 20:09:00,68.5,60.0,28.68,West,270,6.3,14.0,76,0.00,,,3.20,Rainwise IP-100,2013-10-12 01:09:00,
2013-10-11 20:14:00,68.4,61.0,28.68,NNE,22,3.3,9.0,77,0.00,,,3.20,Rainwise IP-100,2013-10-12 01:14:00,
2013-10-11 20:19:00,68.3,60.0,28.67,SE,135,8.6,18.0,77,0.00,,,3.20,Rainwise IP-100,2013-10-12 01:19:00,
2013-10-11 20:24:00,68.1,61.0,28.68,ENE,67,0.0,13.0,78,0.00,,,3.20,Rainwise IP-100,2013-10-12 01:24:00,
2013-10-11 20:29:00,68.0,61.0,28.67,NNW,337,2.6,10.0,78,0.00,,,3.20,Rainwise IP-100,2013-10-12 01:29:00,
2013-10-11 20:34:00,67.9,61.0,28.67,NNW,337,6.3,8.0,79,0.00,,,3.20,Rainwise IP-100,2013-10-12 01:34:00,
2013-10-11 20:39:00,67.7,61.0,28.67,SSE,157,8.6,11.0,79,0.00,,,3.20,Rainwise IP-100,2013-10-12 01:39:00,
2013-10-11 20:44:00,67.7,61.0,28.66,SE,135,9.8,12.0,80,0.00,,,3.20,Rainwise IP-100,2013-10-12 01:44:00,
2013-10-11 20:49:00,67.7,61.0,28.67,NW,315,0.0,12.0,80,0.00,,,3.20,Rainwise IP-100,2013-10-12 01:49:00,
2013-10-11 20:54:00,67.6,61.0,28.67,SSE,157,3.0,13.0,80,0.00,,,3.20,Rainwise IP-100,2013-10-12 01:54:00,
2013-10-11 20:59:00,67.4,61.0,28.67,East,90,5.1,5.1,80,0.00,,,3.20,Rainwise IP-100,2013-10-12 01:59:00,
2013-10-11 21:04:00,67.4,61.0,28.67,East,90,4.7,10.0,80,0.00,,,3.20,Rainwise IP-100,2013-10-12 02:04:00,
2013-10-11 21:09:00,67.4,61.0,28.67,ENE,67,0.0,6.0,81,0.00,,,3.20,Rainwise IP-100,2013-10-12 02:09:00,
2013-10-11 21:14:00,67.4,61.0,28.68,WNW,292,2.3,10.0,81,0.00,,,3.20,Rainwise IP-100,2013-10-12 02:14:00,
2013-10-11 21:19:00,67.4,61.0,28.68,SSW,202,1.4,5.0,81,0.00,,,3.20,Rainwise IP-100,2013-10-12 02:19:00,
2013-10-11 21:24:00,67.4,61.0,28.68,NNW,337,5.4,7.0,81,0.00,,,3.20,Rainwise IP-100,2013-10-12 02:24:00,
2013-10-11 21:29:00,67.5,61.0,28.67,SE,135,5.1,7.0,81,0.00,,,3.20,Rainwise IP-100,2013-10-12 02:29:00,
2013-10-11 21:34:00,67.6,61.0,28.68,SSW,202,3.3,5.0,81,0.00,,,3.20,Rainwise IP-100,2013-10-12 02:34:00,
2013-10-11 21:39:00,67.5,61.0,28.68,ENE,67,0.0,7.0,81,0.00,,,3.20,Rainwise IP-100,2013-10-12 02:39:00,
2013-10-11 21:44:00,67.4,62.0,28.67,East,90,3.5,5.0,82,0.00,,,3.20,Rainwise IP-100,2013-10-12 02:44:00,
2013-10-11 21:49:00,67.2,61.0,28.69,SE,135,3.0,5.0,82,0.00,,,3.20,Rainwise IP-100,2013-10-12 02:49:00,
2013-10-11 21:54:00,67.3,62.0,28.71,South,180,6.8,7.0,83,0.00,,,3.20,Rainwise IP-100,2013-10-12 02:54:00,
2013-10-11 21:59:00,66.1,59.0,28.71,SW,225,8.2,8.2,80,0.00,,,3.20,Rainwise IP-100,2013-10-12 02:59:00,
2013-10-11 22:04:00,64.9,57.0,28.71,SW,225,12.8,12.8,78,0.00,,,3.20,Rainwise IP-100,2013-10-12 03:04:00,
2013-10-11 22:09:00,64.9,57.0,28.71,SW,225,12.8,12.8,78,0.00,,,3.20,Rainwise IP-100,2013-10-12 03:09:00,
2013-10-11 22:55:00,61.5,59.0,28.73,SSW,202,1.2,0.0,92,0.00,,,3.20,Rainwise IP-100,2013-10-12 03:55:00,
2013-10-11 23:00:00,61.5,59.0,28.73,SSW,202,0.0,1.0,92,0.00,,,3.20,Rainwise IP-100,2013-10-12 04:00:00,
2013-10-11 23:01:00,61.5,59.0,28.73,SSW,202,0.0,0.0,92,0.00,,,3.20,Rainwise IP-100,2013-10-12 04:01:00,
2013-10-11 23:29:00,61.5,59.0,28.73,SSW,202,0.0,0.0,92,0.00,,,3.20,Rainwise IP-100,2013-10-12 04:29:00,
2013-10-11 23:34:00,60.4,54.0,28.74,SW,225,1.6,1.6,81,0.00,,,3.20,Rainwise IP-100,2013-10-12 04:34:00,
2013-10-11 23:39:00,59.9,54.0,28.75,SSW,202,0.0,1.0,81,0.00,,,3.20,Rainwise IP-100,2013-10-12 04:39:00,
2013-10-11 23:44:00,59.9,54.0,28.75,SSW,202,0.0,0.0,81,0.00,,,3.20,Rainwise IP-100,2013-10-12 04:44:00,
2013-10-11 23:49:00,59.2,53.0,28.75,South,180,1.6,3.0,82,0.00,,,3.20,Rainwise IP-100,2013-10-12 04:49:00,
2013-10-11 23:54:00,58.9,53.0,28.76,SSW,202,5.1,5.1,82,0.00,,,3.20,Rainwise IP-100,2013-10-12 04:54:00,
2013-10-11 23:59:00,58.9,53.0,28.76,SSW,202,5.1,5.1,82,0.00,,,3.20,Rainwise IP-100,2013-10-12 04:59:00,